Showing default

NEMO-HD, 46277

Orbit data source: Space-Track

NEMO-HD, 46277 is a payload satellite owned by Space-SI (SI) in SSO that was launched on Thu, 03 Sep 2020 UTC via a VEGA launch vehicle from the French Guiana (FRGUI). Payload-class satellites include a variety of spacecraft equipped with specific instruments for various scientific and technological missions. These include communications satellites like Starlink; space stations such as the ISS; scientific satellites like the Hubble; Earth observation satellites from companies like Planet Labs, Umbra, and HawkEye 360; GPS; miniature CubeSats for education and research; and military/defense satellites.

Loading next visibility...
Identifier
46277, 2020-061F
Orbit
SSO
Country
Flag of SISI / SVN
Related business
Manufacturer
UTIAS-SFL
Mission
Operational Amateur Imaging
Bus & Motor
NEMO-HD, Unknown motor
Mass
65 kg wet, 65 kg dry
Launch date (UTC)
2020-09-03 (5 years ago)
Launch vehicle
VEGA
Launch site
French Guiana (FRGUI)
Object type
Payload
Rocket body
Debris
Shape & HBR
Oct Cyl, Unknown HBR
Radar Cross Section
0.165 m², Medium (>0.1 m² and < 1m²)

Expand to show TLE details & history
Last TLE update: 18 hours ago

TLE from 18 hours ago
0 NEMO-HD
1 46277U 20061F   25287.93447964  .00012584  00000-0  33182-3 0  9995
2 46277  97.2301 347.8252 0001597 134.9169 225.2207 15.38627138284194
Epoch: 2025-10-14T22:25Z
TLE epoch observation values (Epoch: 2025-10-14T22:25:39.040Z)
Latitude
Longitude
-12.30325°
Altitude
454.057 km
Speed
7.64 km/s
True Right ascension
23h 11m 18s
True Declination
0° 00' 00"
Sunlit
Object was in full shadow at epoch
Visualization orbit readout
Latitude
Unknown
Longitude
Unknown
Altitude
Unknown
Speed
Unknown
Apparent Right ascension
Unknown
Apparent Declination
Unknown
Sunlit
N/A
Visualization observer readout
Local Sidereal Time
10:33:47
Azimuth
Unknown
Elevation
Unknown
Doppler factor
Unknown
Orbital elements
Apogee altitude
448.192 km
Perigee altitude
446.012 km
Semi-major axis
6,825.239 km
Eccentricity
0.00016
Inclination
97.2301°
RAAN
347.8252°
Arg. of periapsis
134.9169°
True anomaly
225.20771°
Mean anomaly
225.2207°
Eccentric anomaly
225.21421°
Mean motion
3.84916 °/min
Orbital period
93.53 mins
BSTAR
0.00033182
Loading maneuver chart data...
Computing Atmospheric mass density...

Documentation

Showing up to 5 results
|